Regional Weather Roundup
Issued by NWS Cleveland, OH

Home | Current Version | Previous Version | Graphics & Text | Print | Product List | Glossary On
Versions: 1 2 3 4 5 6 7 8 9 10 11 12 13 14 15 16 17 18 19 20 21 22 23 24 25 26 27 28 29 30 31 32 33 34 35 36 37 38 39 40 41 42 43 44 45 46 47 48 49 50
000
ASUS41 KCLE 210810
RWRCLE
OHIO REGIONAL WEATHER ROUNDUP
NATIONAL WEATHER SERVICE CLEVELAND, OH
400 AM EDT THU AUG 21 2014

NOTE: "FAIR" INDICATES FEW OR NO CLOUDS BELOW 12,000 FEET WITH NO
SIGNIFICANT WEATHER AND/OR OBSTRUCTIONS TO VISIBILITY.

OHZ001>008-015>018-024>027-034-035-043-044-210900-
   NORTHWEST OHIO

CITY           SKY/WX    TMP DP  RH WIND       PRES   REMARKS
DEFIANCE       MOCLDY    71  67  87 CALM      29.97F
FINDLAY        CLEAR     70  66  87 SW7       29.97S
TOLEDO EXPRESS CLEAR     68  64  87 W3        29.95F
TOLEDO EXEC    CLEAR     68  63  84 W3        29.96S
LIMA           MOCLDY    70  66  87 SW3       30.00F
$$

OHZ009>014-019>023-028>033-038-089-210900-
   NORTHEAST OHIO

CITY           SKY/WX    TMP DP  RH WIND       PRES   REMARKS
CLE-HOPKINS    PTCLDY    68  64  87 SW6       29.98S
CLE-LAKEFRONT  PTCLDY    71  65  81 S5        29.95S
CUY CO. ARPT   NOT AVBL
LORAIN-ELYRIA  CLEAR     71  64  78 SW5       29.97F
ASHTABULA      CLEAR     65  63  93 CALM      29.97S FOG
AKRON-CANTON   PTCLDY    68  64  87 SW5       30.00R
WOOSTER        CLEAR     63  61  93 CALM      30.00S FOG
MANSFIELD      CLEAR     69  65  86 SW7       30.00F
YOUNGSTOWN     PTCLDY    66  65  96 CALM      29.99S
$$

OHZ042-051>053-060>062-070>072-077>081-210900-
  SOUTHWEST OHIO

CITY           SKY/WX    TMP DP  RH WIND       PRES   REMARKS
CINC-COVINGTON MOCLDY    69  67  93 CALM      30.04S FOG
CINC-LUNKEN    PTCLDY    67  66  97 NE3       30.03F FOG
HAMILTON       PTCLDY    67  66  97 CALM      30.04R FOG
DAYTON         MOCLDY    70  68  93 SW7       30.04R
WRIGHT-PAT AFB MOCLDY    70  66  88 S3        30.02S FOG
DAYTON GENERAL PTCLDY    71  68  90 SW6       30.03S
WILMINGTON     MOCLDY    67  65  93 SW7       30.04S
$$

OHZ036-037-039>041-045>050-054>059-063>069-073>076-082>088-210900-
  CENTRAL AND SOUTHEAST OHIO

CITY           SKY/WX    TMP DP  RH WIND       PRES   REMARKS
COLUMBUS       CLEAR     73  66  78 S3        30.01S
OSU AIRPORT    CLEAR     69  65  86 W6        30.02R
BOLTON FIELD   CLEAR     68  67  97 W3        30.02S
RICKENBACK AFB CLEAR     66  62  85 CALM      30.01S FOG
NEWARK         CLEAR     67  65  93 S3        30.01S
MARION         CLEAR     69  65  86 W6        30.00S
LANCASTER      CLEAR     68  65  90 SW3       30.02F
ZANESVILLE     CLEAR     66  63  90 SW3       30.01R
NEW PHILLY     FOG       65  65 100 SE5       30.00R VSB 1/4
$$


USA.gov is the U.S. government's official web portal to all federal, state and local government web resources and services.